• En España
  • Lista de países
  • Para 7 días
  • Temperatura del agua
  • Mapa Satelital
  • El tiempo en el mapa
  • Informadores
  • user-avatar
    Iniciar sesión

    Tiempo cada hora Vendas Novas

    Hoy, 19 Enero, Viernes

    Tiempo Temperatura Precipitaciones Viento Presión Humedad
    00:00 +7°C° 0 mm 4 mps 753 mmHg 89%
    01:00 +8°C° 0 mm 3 mps 753 mmHg 89%
    02:00 +8°C° 0 mm 3 mps 753 mmHg 90%
    03:00 +8°C° 0 mm 3 mps 753 mmHg 89%
    04:00 +8°C° 0 mm 3 mps 753 mmHg 89%
    05:00 +7°C° 0 mm 3 mps 753 mmHg 88%
    06:00 +8°C° 0 mm 3 mps 754 mmHg 85%
    07:00 +8°C° 0 mm 3 mps 754 mmHg 82%
    08:00 +9°C° 0 mm 3 mps 755 mmHg 80%
    09:00 +11°C° 0 mm 3 mps 755 mmHg 72%
    10:00 +13°C° 0 mm 3 mps 755 mmHg 65%
    11:00 +15°C° 0 mm 4 mps 756 mmHg 58%
    12:00 +17°C° 0 mm 3 mps 755 mmHg 56%
    13:00 +18°C° 0 mm 3 mps 755 mmHg 55%
    14:00 +19°C° 0 mm 3 mps 755 mmHg 53%
    15:00 +17°C° 0 mm 3 mps 756 mmHg 62%
    16:00 +14°C° 0 mm 3 mps 756 mmHg 70%
    17:00 +13°C° 0 mm 2 mps 756 mmHg 79%
    18:00 +12°C° 0 mm 2 mps 757 mmHg 82%
    19:00 +10°C° 0 mm 2 mps 757 mmHg 86%
    20:00 +9°C° 0 mm 2 mps 758 mmHg 90%
    21:00 +8°C° 0 mm 2 mps 758 mmHg 91%
    22:00 +8°C° 0 mm 2 mps 758 mmHg 91%
    23:00 +8°C° 0 mm 2 mps 758 mmHg 91%

    Mañana, 20 Enero, Sábado

    Tiempo Temperatura Precipitaciones Viento Presión Humedad
    00:00 +7°C° 0 mm 2 mps 758 mmHg 91%
    01:00 +7°C° 0 mm 2 mps 758 mmHg 91%
    02:00 +8°C° 0 mm 1 mps 759 mmHg 91%
    03:00 +7°C° 0 mm 1 mps 759 mmHg 91%
    04:00 +7°C° 0 mm 1 mps 759 mmHg 91%
    05:00 +7°C° 0 mm 1 mps 759 mmHg 91%
    06:00 +8°C° 0 mm 1 mps 759 mmHg 89%
    07:00 +8°C° 0 mm 1 mps 760 mmHg 86%
    08:00 +9°C° 0 mm 1 mps 760 mmHg 84%
    09:00 +11°C° 0 mm 1 mps 760 mmHg 74%
    10:00 +13°C° 0 mm 2 mps 760 mmHg 64%
    11:00 +16°C° 0 mm 2 mps 760 mmHg 54%
    12:00 +16°C° 0 mm 2 mps 760 mmHg 53%
    13:00 +17°C° 0 mm 3 mps 760 mmHg 52%
    14:00 +18°C° 0 mm 3 mps 759 mmHg 51%
    15:00 +16°C° 0 mm 3 mps 760 mmHg 60%
    16:00 +13°C° 0 mm 3 mps 760 mmHg 68%
    17:00 +12°C° 0 mm 2 mps 760 mmHg 77%
    18:00 +10°C° 0 mm 2 mps 760 mmHg 82%
    19:00 +10°C° 0 mm 2 mps 761 mmHg 87%
    20:00 +9°C° 0 mm 2 mps 761 mmHg 91%
    21:00 +9°C° 0 mm 2 mps 761 mmHg 93%
    22:00 +9°C° 0 mm 2 mps 761 mmHg 94%
    23:00 +8°C° 0 mm 2 mps 761 mmHg 95%

    Pasado mañana, 21 Enero, Domingo

    Tiempo Temperatura Precipitaciones Viento Presión Humedad
    00:00 +8°C° 0 mm 2 mps 761 mmHg 95%
    01:00 +8°C° 0 mm 2 mps 761 mmHg 96%
    02:00 +8°C° 0 mm 2 mps 761 mmHg 96%
    03:00 +8°C° 0 mm 2 mps 761 mmHg 96%
    04:00 +8°C° 0 mm 2 mps 761 mmHg 96%
    05:00 +9°C° 0 mm 1 mps 761 mmHg 97%
    06:00 +9°C° 0 mm 1 mps 761 mmHg 96%
    07:00 +10°C° 0 mm 1 mps 761 mmHg 95%
    08:00 +10°C° 0 mm 1 mps 761 mmHg 95%
    09:00 +13°C° 0 mm 1 mps 761 mmHg 86%
    10:00 +15°C° 0 mm 2 mps 761 mmHg 78%
    11:00 +17°C° 0 mm 2 mps 761 mmHg 69%
    12:00 +17°C° 0 mm 2 mps 761 mmHg 67%
    13:00 +18°C° 0 mm 3 mps 760 mmHg 64%
    14:00 +19°C° 0 mm 3 mps 760 mmHg 61%
    15:00 +17°C° 0 mm 3 mps 760 mmHg 69%
    16:00 +15°C° 0 mm 2 mps 760 mmHg 77%
    17:00 +14°C° 0 mm 2 mps 760 mmHg 85%
    18:00 +13°C° 0 mm 2 mps 760 mmHg 88%
    19:00 +12°C° 0 mm 2 mps 761 mmHg 91%
    20:00 +10°C° 0 mm 2 mps 761 mmHg 94%
    21:00 +10°C° 0 mm 2 mps 761 mmHg 94%
    22:00 +9°C° 0 mm 2 mps 761 mmHg 94%
    23:00 +9°C° 0 mm 2 mps 761 mmHg 95%

    22 Enero, Lunes

    Tiempo Temperatura Precipitaciones Viento Presión Humedad
    00:00 +9°C° 0 mm 2 mps 760 mmHg 95%
    01:00 +9°C° 0 mm 2 mps 760 mmHg 95%
    02:00 +8°C° 0 mm 2 mps 760 mmHg 95%
    03:00 +8°C° 0 mm 2 mps 760 mmHg 95%
    04:00 +9°C° 0 mm 1 mps 760 mmHg 95%
    05:00 +9°C° 0 mm 1 mps 760 mmHg 95%
    06:00 +9°C° 0 mm 1 mps 760 mmHg 93%
    07:00 +10°C° 0 mm 1 mps 760 mmHg 91%
    08:00 +10°C° 0 mm 1 mps 761 mmHg 89%
    09:00 +12°C° 0 mm 1 mps 761 mmHg 80%
    10:00 +15°C° 0 mm 2 mps 761 mmHg 71%
    11:00 +17°C° 0 mm 2 mps 761 mmHg 63%
    12:00 +18°C° 0 mm 2 mps 760 mmHg 60%
    13:00 +18°C° 0 mm 2 mps 760 mmHg 57%
    14:00 +19°C° 0 mm 3 mps 759 mmHg 55%
    15:00 +17°C° 0 mm 3 mps 759 mmHg 62%
    16:00 +15°C° 0 mm 2 mps 759 mmHg 70%
    17:00 +13°C° 0 mm 2 mps 759 mmHg 77%
    18:00 +12°C° 0 mm 2 mps 760 mmHg 81%
    19:00 +10°C° 0 mm 2 mps 760 mmHg 85%
    20:00 +9°C° 0 mm 2 mps 760 mmHg 88%
    21:00 +9°C° 0 mm 2 mps 760 mmHg 89%
    22:00 +8°C° 0 mm 2 mps 760 mmHg 89%
    23:00 +8°C° 0 mm 2 mps 760 mmHg 89%

    23 Enero, Martes

    Tiempo Temperatura Precipitaciones Viento Presión Humedad
    00:00 +8°C° 0 mm 2 mps 760 mmHg 89%
    01:00 +7°C° 0 mm 2 mps 759 mmHg 88%
    02:00 +7°C° 0 mm 2 mps 759 mmHg 87%
    03:00 +7°C° 0 mm 2 mps 759 mmHg 86%
    04:00 +7°C° 0 mm 2 mps 759 mmHg 85%
    05:00 +6°C° 0 mm 2 mps 759 mmHg 83%
    06:00 +7°C° 0 mm 2 mps 759 mmHg 80%
    07:00 +7°C° 0 mm 2 mps 759 mmHg 76%
    08:00 +8°C° 0 mm 2 mps 760 mmHg 72%
    09:00 +12°C° 0 mm 2 mps 759 mmHg 65%
    10:00 +14°C° 0 mm 2 mps 759 mmHg 57%
    11:00 +17°C° 0 mm 2 mps 759 mmHg 50%
    12:00 +18°C° 0 mm 2 mps 759 mmHg 49%
    13:00 +19°C° 0 mm 2 mps 758 mmHg 48%
    14:00 +20°C° 0 mm 2 mps 758 mmHg 47%
    15:00 +18°C° 0 mm 2 mps 758 mmHg 56%
    16:00 +16°C° 0 mm 2 mps 757 mmHg 64%
    17:00 +13°C° 0 mm 1 mps 757 mmHg 73%
    18:00 +13°C° 0 mm 2 mps 757 mmHg 76%
    19:00 +12°C° 0 mm 2 mps 758 mmHg 79%
    20:00 +10°C° 0 mm 2 mps 758 mmHg 83%
    21:00 +10°C° 0 mm 2 mps 758 mmHg 83%
    22:00 +9°C° 0 mm 2 mps 757 mmHg 83%
    23:00 +9°C° 0 mm 2 mps 757 mmHg 83%

    24 Enero, Miércoles

    Tiempo Temperatura Precipitaciones Viento Presión Humedad
    00:00 +9°C° 0 mm 2 mps 757 mmHg 84%
    01:00 +8°C° 0 mm 2 mps 756 mmHg 84%
    02:00 +8°C° 0 mm 2 mps 756 mmHg 85%
    03:00 +8°C° 0 mm 2 mps 756 mmHg 85%
    04:00 +8°C° 0 mm 2 mps 756 mmHg 85%
    05:00 +8°C° 0 mm 2 mps 756 mmHg 85%
    06:00 +8°C° 0 mm 2 mps 756 mmHg 83%
    07:00 +9°C° 0 mm 2 mps 756 mmHg 80%
    08:00 +9°C° 0 mm 2 mps 756 mmHg 78%
    09:00 +13°C° 0 mm 2 mps 756 mmHg 70%
    10:00 +15°C° 0 mm 2 mps 756 mmHg 63%
    11:00 +17°C° 0 mm 2 mps 756 mmHg 55%
    12:00 +17°C° 0 mm 2 mps 756 mmHg 55%
    13:00 +18°C° 0 mm 2 mps 755 mmHg 55%
    14:00 +18°C° 0 mm 2 mps 755 mmHg 55%
    15:00 +17°C° 0 mm 2 mps 755 mmHg 63%
    16:00 +15°C° 0 mm 2 mps 755 mmHg 71%
    17:00 +13°C° 0 mm 1 mps 755 mmHg 78%
    18:00 +13°C° 0 mm 1 mps 755 mmHg 82%
    19:00 +12°C° 0 mm 1 mps 756 mmHg 86%
    20:00 +11°C° 0 mm 1 mps 756 mmHg 89%
    21:00 +11°C° 0 mm 1 mps 756 mmHg 91%
    22:00 +11°C° 0 mm 1 mps 756 mmHg 92%
    23:00 +11°C° 0 mm 1 mps 756 mmHg 94%
    Mostrar más